Location: Orange Harbor Mobile Home Park
(26.6923°N, 81.7937°W)
Time: 07:42:29
(UTC+00:00)

Cosmos 1975 Rocket - Pass Details

Date: 19 September 2020
Orbit: 603 x 634 km, 82.5° (Epoch: 29 October)

Event Time Altitude Azimuth Distance (km) Brightness Sun altitude
Rises 00:02:29 0° 10° (N) 2,859 6.4 -8.6°
Reaches altitude 10° 00:05:00 10° 23° (NNE) 1,950 5.5 -9.2°
Maximum altitude 00:08:37 26° 80° (E) 1,197 4.0 -10.0°
Drops below altitude 10° 00:12:12 10° 138° (SE) 1,940 5.2 -10.8°
Enters shadow 00:13:45 - 147° (SSE) 2,484 5.8 -11.1°
